Quillayute, WA

8:07 AM PST on February 20, 2018 (GMT -0800)
Quillayute

Weather History for KUIL - September, 2013

Change the Weather History Date:

Sunday, September 22, 2013

  Actual Average Record
Temperature  
Mean Temperature 59 °F 56 °F  
Max Temperature 65 °F 65 °F 89 °F (1974)
Min Temperature 52 °F 46 °F 35 °F (1993)
Degree Days  
Heating Degree Days 6 10  
Month to date heating degree days 45 172  
Since 1 July heating degree days 217 541  
Cooling Degree Days 0 0  
Month to date cooling degree days 14 0  
Year to date cooling degree days 39 17  
Growing Degree Days 9 (Base 50)    
Moisture  
Dew Point 54 °F    
Average Humidity 80    
Maximum Humidity 87    
Minimum Humidity 72    
Precipitation  
Precipitation 1.57 in 0.14 in 2.34 in (1969)
Month to date precipitation 4.37 2.51  
Year to date precipitation 66.19 59.23  
Sea Level Pressure  
Sea Level Pressure 29.57 in    
Wind  
Wind Speed 7 mph (SSW)    
Max Wind Speed 21 mph    
Max Gust Speed 35 mph    
Visibility 4 miles    
Events Fog , Rain , Thunderstorm    
T = Trace of Precipitation, MM = Missing Value Source: NWS Daily Summary

Daily Weather History Graph

Daily Weather History Graph

Search for Another Location

Airport or City:

Trip Planner

Search our weather history database for the weather conditions in past years. The results will help you decide how hot, cold, wet, or windy it might be!

Date:

Astronomy

Sep. 22, 2013 Rise Set
Actual Time 7:05 AM PDT 7:15 PM PDT
Civil Twilight 6:34 AM PDT 7:46 PM PDT
Nautical Twilight 5:58 AM PDT 8:22 PM PDT
Astronomical Twilight 5:20 AM PDT 8:59 PM PDT
Moon 8:50 PM PDT (9/22) 10:49 AM PDT (9/22)
Length of Visible Light 13h 11m
Length of Day
12h 09m
Waning Gibbous, 88% of the Moon is Illuminated
Sep 22
Waning Gibbous
Sep 26
Last Quarter
Oct 4
New
Oct 11
First Quarter
Oct 18
Full

Hourly Weather History & Observations

Time (PDT) Temp. Dew Point Humidity Pressure Visibility Wind Dir Wind Speed Gust Speed Precip Events Conditions
12:53 AM 57.9 °F 54.0 °F 87% 29.67 in 7.0 mi Calm Calm - 0.00 in Rain Light Rain
1:10 AM 57.2 °F 53.6 °F 88% 29.66 in 4.0 mi Variable 3.5 mph - 0.01 in Rain Rain
1:14 AM 57.2 °F 53.6 °F 88% 29.66 in 2.5 mi Variable 6.9 mph - 0.02 in Rain Rain
1:19 AM 57.2 °F 53.6 °F 88% 29.66 in 3.0 mi SSE 4.6 mph - 0.03 in Rain Rain
1:53 AM 57.9 °F 54.0 °F 87% 29.65 in 7.0 mi Calm Calm - 0.04 in   Mostly Cloudy
2:07 AM 57.2 °F 53.6 °F 88% 29.65 in 8.0 mi Variable 3.5 mph - N/A   Mostly Cloudy
2:25 AM 59.0 °F 55.4 °F 88% 29.64 in 7.0 mi South 5.8 mph - N/A   Overcast
2:35 AM 59.0 °F 55.4 °F 88% 29.64 in 6.0 mi SSE 4.6 mph - N/A   Overcast
2:53 AM 59.0 °F 54.0 °F 83% 29.64 in 7.0 mi SSE 5.8 mph - N/A   Mostly Cloudy
3:53 AM 59.0 °F 55.0 °F 87% 29.62 in 4.0 mi Variable 3.5 mph - 0.04 in Rain Light Rain
4:30 AM 59.0 °F 55.4 °F 88% 29.63 in 4.0 mi SSW 10.4 mph - 0.01 in Rain Rain
4:33 AM 59.0 °F 55.4 °F 88% 29.62 in 1.5 mi SSW 11.5 mph 21.9 mph 0.02 in Rain Rain
4:36 AM 57.2 °F 53.6 °F 88% 29.62 in 1.2 mi SSW 12.7 mph 21.9 mph 0.12 in Rain Heavy Rain
4:42 AM 57.2 °F 53.6 °F 88% 29.62 in 2.5 mi SW 11.5 mph 21.9 mph 0.13 in Rain Light Rain
4:49 AM 57.2 °F 53.6 °F 88% 29.62 in 4.0 mi SSW 9.2 mph 20.7 mph 0.14 in Rain Light Rain
4:53 AM 57.9 °F 54.0 °F 87% 29.62 in 4.0 mi SSW 13.8 mph 20.7 mph 0.14 in Rain Rain
4:57 AM 57.2 °F 53.6 °F 88% 29.62 in 4.0 mi SSW 13.8 mph 23.0 mph 0.01 in Rain Light Rain
5:53 AM 57.0 °F 53.1 °F 87% 29.60 in 6.0 mi Variable 6.9 mph - 0.03 in Rain Light Rain
6:02 AM 57.2 °F 53.6 °F 88% 29.59 in 6.0 mi South 12.7 mph 18.4 mph 0.00 in Rain Light Rain
6:09 AM 57.2 °F 53.6 °F 88% 29.59 in 6.0 mi South 10.4 mph 19.6 mph 0.01 in Rain Light Rain
6:53 AM 57.9 °F 53.1 °F 84% 29.56 in 6.0 mi South 9.2 mph - 0.01 in Rain Light Rain
7:07 AM 57.2 °F 53.6 °F 88% 29.55 in 5.0 mi South 10.4 mph 21.9 mph 0.02 in Rain Light Rain
7:26 AM 57.2 °F 53.6 °F 88% 29.55 in 1.8 mi South 12.7 mph 25.3 mph 0.02 in Rain Light Rain
7:36 AM 57.2 °F 53.6 °F 88% 29.54 in 1.2 mi SSE 10.4 mph 21.9 mph 0.03 in Rain Light Rain
7:50 AM 57.2 °F 53.6 °F 88% 29.53 in 1.0 mi South 15.0 mph 31.1 mph 0.07 in Rain Heavy Rain
7:53 AM 57.0 °F 53.1 °F 87% 29.54 in 1.0 mi SSE 11.5 mph 31.1 mph 0.07 in Rain Rain
8:02 AM 57.2 °F 51.8 °F 82% 29.53 in 1.2 mi SSE 12.7 mph 25.3 mph 0.06 in Rain Rain
8:09 AM 57.2 °F 51.8 °F 82% 29.52 in 2.0 mi South 8.1 mph 25.3 mph 0.06 in Rain Light Rain
8:17 AM 57.2 °F 53.6 °F 88% 29.52 in 1.5 mi South 11.5 mph 19.6 mph 0.08 in Rain Rain
8:22 AM 57.2 °F 53.6 °F 88% 29.52 in 2.0 mi SSE 8.1 mph 25.3 mph 0.08 in Rain Light Rain
8:36 AM 57.2 °F 53.6 °F 88% 29.51 in 1.8 mi SSE 9.2 mph 25.3 mph 0.10 in Rain Rain
8:53 AM 57.0 °F 53.1 °F 87% 29.49 in 1.2 mi SSE 13.8 mph 20.7 mph 0.14 in Rain Light Rain
9:15 AM 57.2 °F 53.6 °F 88% 29.49 in 0.8 mi SSE 11.5 mph 24.2 mph 0.05 in Rain Heavy Rain
9:53 AM 57.9 °F 54.0 °F 87% 29.47 in 0.5 mi Variable 6.9 mph 27.6 mph 0.33 in Fog , Rain Heavy Rain
10:07 AM 57.2 °F 53.6 °F 88% 29.45 in 1.2 mi SSE 12.7 mph 31.1 mph 0.06 in Rain Rain
10:24 AM 59.0 °F 55.4 °F 88% 29.44 in 1.5 mi South 15.0 mph 24.2 mph 0.12 in Rain Rain
10:34 AM 59.0 °F 55.4 °F 88% 29.43 in 1.0 mi South 10.4 mph 32.2 mph 0.17 in Rain Heavy Rain
10:50 AM 59.0 °F 55.4 °F 88% 29.47 in 0.5 mi SSW 18.4 mph 34.5 mph 0.34 in Fog , Rain Heavy Rain
10:53 AM 59.0 °F 55.0 °F 87% 29.46 in 0.2 mi Variable 6.9 mph 34.5 mph 0.45 in Fog , Rain Heavy Rain
11:00 AM 57.2 °F 53.6 °F 88% 29.47 in 0.5 mi West 9.2 mph - 0.17 in Fog , Rain Rain
11:03 AM 57.2 °F 53.6 °F 88% 29.47 in 1.0 mi WNW 9.2 mph - 0.18 in Rain Rain
11:06 AM 57.2 °F 53.6 °F 88% 29.47 in 2.5 mi WNW 8.1 mph - 0.18 in Rain Light Rain
11:30 AM 57.2 °F 53.6 °F 88% 29.48 in 5.0 mi Calm Calm - 0.20 in Rain Light Rain
11:46 AM 60.8 °F 55.4 °F 82% 29.50 in 6.0 mi Variable 3.5 mph - 0.20 in   Haze
11:53 AM 61.0 °F 55.9 °F 83% 29.50 in 6.0 mi Calm Calm - 0.20 in   Haze
12:00 PM 60.8 °F 55.4 °F 82% 29.50 in 6.0 mi WSW 3.5 mph - N/A   Haze
12:12 PM 62.6 °F 55.4 °F 77% 29.50 in 6.0 mi SSW 6.9 mph - N/A   Haze
12:30 PM 62.6 °F 55.4 °F 77% 29.50 in 6.0 mi SSW 6.9 mph - N/A   Haze
12:53 PM 62.1 °F 55.9 °F 80% 29.51 in 5.0 mi South 8.1 mph - 0.00 in Rain Light Rain
1:02 PM 60.8 °F 55.4 °F 82% 29.51 in 2.5 mi SW 6.9 mph - 0.00 in Rain Light Rain
1:09 PM 60.8 °F 55.4 °F 82% 29.51 in 4.0 mi South 9.2 mph - 0.01 in Rain Light Rain
1:25 PM 60.8 °F 55.4 °F 82% 29.52 in 1.8 mi South 10.4 mph - 0.01 in Rain Rain
1:36 PM 60.8 °F 55.4 °F 82% 29.53 in 3.0 mi SSW 9.2 mph - 0.03 in Rain Light Rain
1:53 PM 59.0 °F 53.1 °F 81% 29.53 in 7.0 mi Variable 6.9 mph - 0.04 in   Overcast
2:14 PM 60.8 °F 55.4 °F 82% 29.53 in 7.0 mi SW 5.8 mph - 0.00 in   Mostly Cloudy
2:39 PM 62.6 °F 57.2 °F 82% 29.54 in 5.0 mi SW 6.9 mph - 0.00 in Rain Light Rain
2:53 PM 62.1 °F 57.0 °F 84% 29.55 in 5.0 mi WSW 6.9 mph - 0.00 in   Haze
3:53 PM 64.0 °F 55.0 °F 73% 29.57 in 7.0 mi WSW 9.2 mph - 0.00 in   Clear
4:53 PM 63.0 °F 55.0 °F 75% 29.59 in 6.0 mi SW 9.2 mph 18.4 mph N/A   Haze
5:53 PM 63.0 °F 53.1 °F 70% 29.61 in 7.0 mi WSW 11.5 mph - N/A   Scattered Clouds
6:53 PM 60.1 °F 54.0 °F 80% 29.62 in 5.0 mi SW 6.9 mph - N/A   Haze
7:53 PM 55.9 °F 50.0 °F 80% 29.65 in 5.0 mi SSW 8.1 mph - 0.06 in Rain Light Rain
8:53 PM 55.0 °F 51.1 °F 86% 29.67 in 7.0 mi SSE 3.5 mph - 0.00 in Rain Light Rain
9:53 PM 54.0 °F 51.1 °F 90% 29.68 in 8.0 mi SSE 3.5 mph - 0.01 in   Scattered Clouds
10:36 PM 57.2 °F 51.8 °F 82% 29.69 in 4.0 mi SW 9.2 mph - 0.01 in Rain , Thunderstorm Light Rain
10:51 PM 55.4 °F 50.0 °F 82% 29.69 in 8.0 mi SSW 5.8 mph - 0.01 in   Scattered Clouds
10:53 PM 55.0 °F 50.0 °F 83% 29.70 in 8.0 mi SW 5.8 mph - 0.01 in   Scattered Clouds
11:53 PM 53.1 °F 48.9 °F 86% 29.71 in 7.0 mi East 3.5 mph - N/A   Scattered Clouds